Newton, KS

8:18 AM CST on December 11, 2019 (GMT -0600)
Newton City County

Weather History for KEWK - October, 2019

Change the Weather History Date:

Friday, October 18, 2019

  Actual Average Record
Temperature  
Mean Temperature 62 °F -  
Max Temperature 73 °F 64 °F 87 °F (2005)
Min Temperature 51 °F 43 °F 33 °F (1999)
Degree Days  
Heating Degree Days 3    
Growing Degree Days 12 (Base 50)    
Moisture  
Dew Point 44 °F    
Average Humidity 55    
Maximum Humidity 71    
Minimum Humidity 41    
Precipitation  
Precipitation 0.00 in - - ()
Sea Level Pressure  
Sea Level Pressure 29.67 in    
Wind  
Wind Speed 20 mph (South)    
Max Wind Speed 29 mph    
Max Gust Speed 34 mph    
Visibility 10 miles    
Events      
Averages and records for this station are not official NWS values.
T = Trace of Precipitation, MM = Missing Value Source: NWS Daily Summary

Daily Weather History Graph

Daily Weather History Graph

Search for Another Location

Airport or City:

Astronomy

Oct. 18, 2019 Rise Set
Actual Time 7:40 AM CDT 6:47 PM CDT
Civil Twilight 7:13 AM CDT 7:14 PM CDT
Nautical Twilight 6:43 AM CDT 7:44 PM CDT
Astronomical Twilight 6:12 AM CDT 8:15 PM CDT
Moon 10:08 PM CDT (10/18) 12:11 PM CDT (10/18)
Length of Visible Light 12h 00m
Length of Day
11h 07m
Waning Gibbous, 78% of the Moon is Illuminated
Oct 18
Waning Gibbous
Oct 21
Last Quarter
Oct 27
New
Nov 4
First Quarter
Nov 12
Full

Hourly Weather History & Observations

Time (CDT) Temp. Dew Point Humidity Pressure Visibility Wind Dir Wind Speed Gust Speed Precip Events Conditions
12:56 AM 55.0 °F 44.1 °F 67% 29.76 in 10.0 mi South 16.1 mph - N/A   Clear
1:56 AM 55.9 °F 42.1 °F 60% 29.76 in 10.0 mi South 18.4 mph - N/A   Clear
2:56 AM 55.0 °F 42.1 °F 62% 29.76 in 10.0 mi South 17.3 mph - N/A   Clear
3:56 AM 55.9 °F 41.0 °F 57% 29.75 in 10.0 mi South 24.2 mph 34.5 mph N/A   Clear
4:56 AM 55.0 °F 41.0 °F 59% 29.74 in 10.0 mi South 23.0 mph - N/A   Clear
5:56 AM 52.0 °F 42.1 °F 69% 29.74 in 10.0 mi South 17.3 mph - N/A   Clear
6:56 AM 51.1 °F 42.1 °F 71% 29.73 in 10.0 mi South 18.4 mph 26.5 mph N/A   Clear
7:56 AM 51.1 °F 42.1 °F 71% 29.73 in 10.0 mi South 19.6 mph - N/A   Clear
8:56 AM 54.0 °F 43.0 °F 66% 29.74 in 10.0 mi SSE 23.0 mph - N/A   Clear
9:56 AM 57.9 °F 44.1 °F 60% 29.74 in 10.0 mi South 24.2 mph 29.9 mph N/A   Clear
10:56 AM 62.1 °F 45.0 °F 53% 29.70 in 10.0 mi South 27.6 mph 34.5 mph N/A   Clear
12:56 PM 70.0 °F 48.0 °F 46% 29.65 in 10.0 mi South 26.5 mph 32.2 mph N/A   Clear
1:56 PM 72.0 °F 50.0 °F 46% 29.61 in 10.0 mi South 26.5 mph 33.4 mph N/A   Clear
2:56 PM 73.9 °F 50.0 °F 43% 29.57 in 10.0 mi South 28.8 mph 34.5 mph N/A   Clear
3:56 PM 73.9 °F 48.9 °F 41% 29.57 in 10.0 mi SSE 25.3 mph 34.5 mph N/A   Clear
4:56 PM 72.0 °F 48.0 °F 43% 29.57 in 10.0 mi SSE 26.5 mph 33.4 mph N/A   Clear
5:56 PM 70.0 °F 46.0 °F 42% 29.57 in 10.0 mi South 23.0 mph 31.1 mph N/A   Clear
6:56 PM 66.0 °F 42.1 °F 42% 29.58 in 10.0 mi SSE 21.9 mph 26.5 mph N/A   Clear
7:56 PM 63.0 °F 43.0 °F 48% 29.60 in 10.0 mi SSE 16.1 mph - N/A   Clear
8:56 PM 62.1 °F 43.0 °F 50% 29.61 in 10.0 mi SSE 18.4 mph - N/A   Clear
9:56 PM 60.1 °F 44.1 °F 55% 29.60 in 10.0 mi SSE 18.4 mph - N/A   Clear
10:56 PM 59.0 °F 44.1 °F 58% 29.61 in 10.0 mi South 18.4 mph - N/A   Clear
11:56 PM 60.1 °F 44.1 °F 55% 29.67 in 10.0 mi SW 15.0 mph 18.4 mph N/A   Overcast